STARLINK-4600, 53628

Orbit data source: Space-Track

STARLINK-4600, 53628 is a payload satellite owned by SpaceX/Seattle (US) in LEO that was launched on Sun, 28 Aug 2022 UTC via an FALCON 9 launch vehicle from the Air Force Eastern Test Range (AFETR). Payload-class satellites include a variety of spacecraft equipped with specific instruments for various scientific and technological missions. These include communications satellites like Starlink; space stations such as the ISS; scientific satellites like the Hubble; Earth observation satellites from companies like Planet Labs, Umbra, and HawkEye 360; GPS; miniature CubeSats for education and research; and military/defense satellites.

Loading next visibility...
Identifier
53628, 2022-104AS
Orbit
LEO
Country
Flag of USUS
Related business
Manufacturer
SpaceX/Seattle
Mission
Operational Commercial Communications
Bus & Motor
STARLINK, Unknown motor
Mass
300 kg wet, ~290 kg dry
Launch date (UTC)
2022-08-28 (3 years ago)
Launch vehicle
FALCON 9
Launch site
Air Force Eastern Test Range (AFETR)
Object type
Payload
Rocket body
Debris
Shape & HBR
Box + 1 Pan, 10.1 m
Radar Cross Section
13.562 m², Large (>1 m²)

Expand to show TLE details & history
Last TLE update: 2 days ago

TLE from 2 days ago
0 STARLINK-4600
1 53628U 22104AS  25299.90094670  .00000162  00000-0  28269-4 0  9995
2 53628  53.2162 114.2827 0001312  90.6252 269.4891 15.08840850175563
Epoch: 2025-10-26T21:37Z
TLE epoch observation values (Epoch: 2025-10-26T21:37:21.794Z)
Latitude
-0°
Longitude
114.43139°
Altitude
540.646 km
Speed
7.593 km/s
True Right ascension
07h 37m 07s
True Declination
0° 00' 00"
Sunlit
Object was in daylight at epoch
Visualization orbit readout
Latitude
Unknown
Longitude
Unknown
Altitude
Unknown
Speed
Unknown
Apparent Right ascension
Unknown
Apparent Declination
Unknown
Sunlit
N/A
Visualization observer readout
Local Sidereal Time
07:09:03
Azimuth
Unknown
Elevation
Unknown
Doppler factor
Unknown
Orbital elements
Apogee altitude
540.894 km
Perigee altitude
539.078 km
Semi-major axis
6,918.123 km
Eccentricity
0.00013
Inclination
53.2162°
RAAN
114.2827°
Arg. of periapsis
90.6252°
True anomaly
269.47407°
Mean anomaly
269.4891°
Eccentric anomaly
269.48158°
Mean motion
3.77191 °/min
Orbital period
95.44 mins
BSTAR
0.000028269
Loading maneuver chart data...
Computing Atmospheric mass density...
Loading historical data...
Loading historical data...
Loading historical data...
Loading historical data...
Loading historical data...
Loading historical data...
Loading historical data...

Documentation

Showing up to 5 results
|